Location: Worth Mountain WMA
(34.9569°N, 81.4819°W)
Time: 08:20:00
(UTC-05:00)

SPOT 5 - Pass Details

Date: 18 August 2017
Orbit: 624 x 815 km, 98.4° (Epoch: 23 November)

Event Time Altitude Azimuth Distance (km) Brightness Sun altitude
Exits shadow 23:25:47 31° 298° (WNW) 1,259 4.5 -34.0°
Drops below altitude 10° 23:28:49 10° 330° (NNW) 2,189 6.2 -34.4°
Sets 23:31:10 0° 338° (NNW) 3,080 7.1 -34.7°
